Erzincan, Turkey

8:38 AM EEST on September 27, 2016 (GMT +0300)
Erzincan

Weather History for LTCD - September, 2013

Change the Weather History Date:

Tuesday, September 17, 2013

  Actual Average Record
Temperature  
Mean Temperature 60 °F -  
Max Temperature 81 °F - - ()
Min Temperature 39 °F - - ()
Degree Days  
Heating Degree Days 5    
Growing Degree Days 10 (Base 50)    
Moisture  
Dew Point 38 °F    
Average Humidity 46    
Maximum Humidity 82    
Minimum Humidity 7    
Precipitation  
Precipitation 0.01 in - - ()
Sea Level Pressure  
Sea Level Pressure 29.81 in    
Wind  
Wind Speed 3 mph ()    
Max Wind Speed 16 mph    
Max Gust Speed 24 mph    
Visibility 6.9 miles    
Events Rain    
T = Trace of Precipitation, MM = Missing Value Source: Averaged Metar Reports

Daily Weather History Graph

Daily Weather History Graph

Search for Another Location

Airport or City:

Trip Planner

Search our weather history database for the weather conditions in past years. The results will help you decide how hot, cold, wet, or windy it might be!

Date:

Astronomy

Sep. 17, 2013 Rise Set
Actual Time 6:04 AM EEST 6:27 PM EEST
Civil Twilight 5:37 AM EEST 6:54 PM EEST
Nautical Twilight 5:05 AM EEST 7:26 PM EEST
Astronomical Twilight 4:33 AM EEST 7:58 PM EEST
Moon 5:00 PM EEST (9/17) 3:35 AM EEST (9/17)
Length of Visible Light 13h 16m
Length of Day
12h 22m
Waxing Gibbous, 94% of the Moon is Illuminated
Sep 17
Waxing Gibbous
Sep 19
Full
Sep 27
Last Quarter
Oct 5
New
Oct 12
First Quarter

Hourly Weather History & Observations

Time (EEST) Temp. Windchill Dew Point Humidity Pressure Visibility Wind Dir Wind Speed Gust Speed Precip Events Conditions
12:50 AM 51.8 °F - 30.2 °F 44% 29.86 in - Calm Calm - N/A   Clear
1:50 AM 50.0 °F - 33.8 °F 54% 29.86 in - Calm Calm - N/A   Clear
2:50 AM 48.2 °F - 33.8 °F 58% 29.86 in - Calm Calm - N/A   Clear
3:50 AM 44.6 °F - 33.8 °F 66% 29.83 in - Calm Calm - N/A   Clear
4:50 AM 42.8 °F - 35.6 °F 76% 29.83 in - Calm Calm - N/A   Clear
5:50 AM 44.6 °F 42.2 °F 33.8 °F 66% 29.83 in - North 4.6 mph - N/A   Clear
6:50 AM 42.8 °F - 33.8 °F 70% 29.83 in - Calm Calm - N/A   Clear
7:50 AM 51.8 °F - 37.4 °F 58% 29.83 in - Variable 2.3 mph - N/A   Clear
8:50 AM 60.8 °F - 32.0 °F 34% 29.80 in - Variable 1.2 mph - N/A   Clear
9:00 AM 60 °F - 31 °F 22%  in 12 mi ENE 1.2 mph - -   Clear
9:50 AM 68.0 °F - 26.6 °F 21% 29.77 in - Variable 1.2 mph - N/A   Clear
10:50 AM 75.2 °F - 26.6 °F 17% 29.77 in - Variable 2.3 mph - N/A   Clear
11:50 AM 80.6 °F - 26.6 °F 14% 29.77 in - NE 5.8 mph - N/A   Clear
12:50 PM 80.6 °F - 26.6 °F 14% 29.74 in - South 6.9 mph - N/A   Clear
1:50 PM 80.6 °F - 28.4 °F 15% 29.74 in - East 3.5 mph - N/A   Clear
2:50 PM 78.8 °F - 28.4 °F 16% 29.71 in 6.2 mi West 9.2 mph - N/A   Mostly Cloudy
3:00 PM 79 °F - 27 °F 7%  in 12 mi West 9.2 mph - -   Partly Cloudy
3:50 PM 77.0 °F - 32.0 °F 19% 29.71 in 6.2 mi SW 11.5 mph 23.0 mph N/A   Mostly Cloudy
4:40 PM 75.2 °F - 35.6 °F 24% 29.77 in 6.2 mi West 12.7 mph - N/A Rain Light Rain Showers
4:50 PM 75.2 °F - 37.4 °F 25% 29.77 in 6.2 mi West 16.1 mph - N/A Rain Light Rain Showers
5:05 PM 71.6 °F - 39.2 °F 31% 29.80 in 6.2 mi West 12.7 mph - N/A   Mostly Cloudy
5:18 PM 69.8 °F - 41.0 °F 35% 29.80 in 6.2 mi West 12.7 mph 24.2 mph N/A Rain Light Rain Showers
5:50 PM 66.2 °F - 46.4 °F 49% 29.80 in 6.2 mi West 5.8 mph - N/A   Mostly Cloudy
6:50 PM 64.4 °F - 50.0 °F 59% 29.83 in 6.2 mi North 6.9 mph - N/A   Mostly Cloudy
7:16 PM 62.6 °F - 50.0 °F 63% 29.83 in 6.2 mi WSW 5.8 mph - N/A Rain Light Rain Showers
7:50 PM 60.8 °F - 50.0 °F 68% 29.86 in 6.2 mi WSW 5.8 mph - N/A Rain Light Rain Showers
8:50 PM 59.0 °F - 51.8 °F 77% 29.86 in 6.2 mi ENE 2.3 mph - N/A   Mostly Cloudy
9:00 PM 60 °F - 52 °F 67%  in 6 mi ENE 2.3 mph - - Rain Light Rain Showers
9:50 PM 57.2 °F - 51.8 °F 82% 29.86 in 6.2 mi Variable 1.2 mph - N/A   Mostly Cloudy
10:50 PM 57.2 °F - 51.8 °F 82% 29.86 in 6.2 mi Calm Calm - N/A   Mostly Cloudy
11:50 PM 55.4 °F - 50.0 °F 82% 29.86 in 6.2 mi Variable 1.2 mph - N/A   Mostly Cloudy